Skip Page Navigation
NASA JPL Caltech
NASA Logo - Jet Propulsion Laboratory + View the NASA Portal
+ Center for Near-Earth Object Studies
JPL Home Earth Solar System Stars & Galaxies Technology
JPL Solar System Dynamics
BODIES ORBITS EPHEMERIDES TOOLS PHYSICAL DATA DISCOVERY FAQ SITE MAP
IMPORTANT: The SSD Announcement email list is now available. Major changes are coming in the near future, including possible hostname and/or URL changes. To be notified of such changes, subscribe to this email list.

Please visit this page for more details.


JPL Small-Body Database Browser
Search: [ help ]  
214988 (2008 BH14)
Classification: Main-belt Asteroid          SPK-ID: 2214988
Ephemeris | Orbit Diagram | Orbital Elements | Mission Design | Physical Parameters | Discovery Circumstances ]

[ show orbit diagram ]
Orbital Elements at Epoch 2458600.5 (2019-Apr-27.0) TDB
Reference: JPL 9 (heliocentric ecliptic J2000)
 Element Value Uncertainty (1-sigma)   Units 
e .1060123007614413 1.085e-07  
a 3.008076716634716 4.6152e-08 au
q 2.689183583037348 3.2358e-07 au
i 10.39654138222238 1.0504e-05 deg
node 42.28983990572366 5.0162e-05 deg
peri 283.2364698945275 7.3177e-05 deg
M 216.1399874502744 5.7062e-05 deg
tp 2459361.999078489801
(2021-May-27.49907849)
0.00030659 TDB
period 1905.600197007986
5.22
4.3856e-05
1.201e-07
d
yr
n .188916857043383 4.3478e-09 deg/d
Q 3.326969850232085 5.1045e-08 au
  Orbit Determination Parameters
   # obs. used (total)      184  
   data-arc span      5457 days (14.94 yr)  
   first obs. used      2004-04-24  
   last obs. used      2019-04-03  
   planetary ephem.      DE431  
   SB-pert. ephem.      SB431-N16  
   condition code      0  
   norm. resid. RMS      .6361  
   source      ORB  
   producer      Otto Matic  
   solution date      2019-Jul-14 10:26:57  

Additional Information
 Earth MOID = 1.70173 au 
 Jupiter MOID = 2.0376 au 
 T_jup = 3.217 
[ show covariance matrix ]

Ephemeris | Orbit Diagram | Orbital Elements | Mission Design | Physical Parameters | Discovery Circumstances ]

Physical Parameter Table
Parameter Symbol Value Units Sigma Reference Notes
absolute magnitude H 15.8   n/a MPO433406  

214988 (2008 BH14)          Discovered 2008-Jan-20 by Mt. Lemmon Survey at Mount Lemmon
Reference: 20090509/Numbers.arcLast Updated: 2009-05-11
Ephemeris | Orbit Diagram | Orbital Elements | Mission Design | Physical Parameters | Discovery Circumstances ]
ABOUT SSD CREDITS/AWARDS PRIVACY/COPYRIGHT GLOSSARY LINKS
FirstGov 2019-Dec-11 20:12 UT
(server date/time)  
NASA Home Page
Site Manager:   Ryan S. Park
Webmaster  Alan B. Chamberlin